Time,TemperatureF,DewpointF,PressureIn,WindDirection,WindDirectionDegrees,WindSpeedMPH,WindSpeedGustMPH,Humidity,HourlyPrecipIn,Conditions,Clouds,dailyrainin,SoftwareType,DateUTC
2013-01-10 00:04:00,41.5,29.5,-100.00,ESE,120,2.0,2.9,62,-99.99,,,-99.99,WSDL version 423,2013-01-10 05:04:00,
2013-01-10 00:10:00,41.7,29.3,-100.00,SE,133,0.6,2.9,61,-99.99,,,-99.99,WSDL version 423,2013-01-10 05:10:00,
2013-01-10 00:13:00,41.6,29.1,-100.00,SSE,148,0.0,2.2,61,-99.99,,,-99.99,WSDL version 423,2013-01-10 05:13:00,
2013-01-10 00:19:00,41.6,29.1,-100.00,ESE,113,0.0,2.5,61,-99.99,,,-99.99,WSDL version 423,2013-01-10 05:19:00,
2013-01-10 00:25:00,41.6,29.1,-100.00,ESE,120,1.9,3.4,61,-99.99,,,-99.99,WSDL version 423,2013-01-10 05:25:00,
2013-01-10 00:31:00,41.6,29.1,-100.00,ESE,108,1.2,3.4,61,-99.99,,,-99.99,WSDL version 423,2013-01-10 05:31:00,
2013-01-10 00:37:00,41.5,28.9,-100.00,ESE,113,1.2,3.6,60,-99.99,,,-99.99,WSDL version 423,2013-01-10 05:37:00,
2013-01-10 00:43:00,41.5,28.7,-100.00,SE,129,0.9,3.6,60,-99.99,,,-99.99,WSDL version 423,2013-01-10 05:43:00,
2013-01-10 00:49:00,41.5,28.7,-100.00,ESE,116,2.0,4.0,60,-99.99,,,-99.99,WSDL version 423,2013-01-10 05:49:00,
2013-01-10 00:55:00,41.5,28.7,-100.00,East,101,1.5,4.0,60,-99.99,,,-99.99,WSDL version 423,2013-01-10 05:55:00,
2013-01-10 01:01:00,41.6,28.6,-100.00,SE,124,2.1,5.6,59,-99.99,,,-99.99,WSDL version 423,2013-01-10 06:01:00,
2013-01-10 01:07:00,41.9,28.6,-100.00,ESE,118,2.1,5.6,59,-99.99,,,-99.99,WSDL version 423,2013-01-10 06:07:00,
2013-01-10 01:13:00,42.1,28.4,-100.00,ESE,118,2.0,4.3,58,-99.99,,,-99.99,WSDL version 423,2013-01-10 06:13:00,
2013-01-10 01:19:00,42.1,28.4,-100.00,SE,138,2.4,4.9,58,-99.99,,,-99.99,WSDL version 423,2013-01-10 06:19:00,
2013-01-10 01:25:00,42.1,28.4,-100.00,SSE,163,2.3,7.2,58,-99.99,,,-99.99,WSDL version 423,2013-01-10 06:25:00,
2013-01-10 01:31:00,42.4,28.3,-100.00,East,98,2.0,7.4,57,-99.99,,,-99.99,WSDL version 423,2013-01-10 06:31:00,
2013-01-10 01:37:00,42.3,28.1,-100.00,ESE,123,1.6,5.4,57,-99.99,,,-99.99,WSDL version 423,2013-01-10 06:37:00,
2013-01-10 01:43:00,42.1,28.0,-100.00,SE,138,1.3,5.4,57,-99.99,,,-99.99,WSDL version 423,2013-01-10 06:43:00,
2013-01-10 01:49:00,42.1,27.7,-100.00,SE,127,1.6,5.6,57,-99.99,,,-99.99,WSDL version 423,2013-01-10 06:49:00,
2013-01-10 01:55:00,41.8,27.7,-100.00,ESE,113,1.4,5.6,57,-99.99,,,-99.99,WSDL version 423,2013-01-10 06:55:00,
2013-01-10 02:01:00,41.8,27.4,-100.00,SE,141,1.4,5.4,56,-99.99,,,-99.99,WSDL version 423,2013-01-10 07:01:00,
2013-01-10 02:07:00,41.7,27.4,-100.00,SE,125,0.8,3.1,56,-99.99,,,-99.99,WSDL version 423,2013-01-10 07:07:00,
2013-01-10 02:13:00,41.5,27.0,-100.00,ESE,120,0.6,6.0,56,-99.99,,,-99.99,WSDL version 423,2013-01-10 07:13:00,
2013-01-10 02:19:00,41.3,26.8,-100.00,ESE,119,0.0,6.0,56,-99.99,,,-99.99,WSDL version 423,2013-01-10 07:19:00,
2013-01-10 02:25:00,40.9,26.6,-100.00,ESE,113,0.0,3.1,57,-99.99,,,-99.99,WSDL version 423,2013-01-10 07:25:00,
2013-01-10 02:31:00,40.7,26.7,-100.00,SE,135,0.3,3.1,57,-99.99,,,-99.99,WSDL version 423,2013-01-10 07:31:00,
2013-01-10 02:37:00,40.5,26.5,-100.00,SE,128,1.3,2.7,57,-99.99,,,-99.99,WSDL version 423,2013-01-10 07:37:00,
2013-01-10 02:43:00,40.5,26.5,-100.00,SE,138,1.2,2.7,57,-99.99,,,-99.99,WSDL version 423,2013-01-10 07:43:00,
2013-01-10 02:49:00,40.5,26.4,-100.00,East,100,0.6,2.0,57,-99.99,,,-99.99,WSDL version 423,2013-01-10 07:49:00,
2013-01-10 02:55:00,40.3,26.3,-100.00,ESE,106,0.3,2.7,57,-99.99,,,-99.99,WSDL version 423,2013-01-10 07:55:00,
2013-01-10 03:01:00,40.2,26.2,-100.00,ESE,115,0.6,2.7,57,-99.99,,,-99.99,WSDL version 423,2013-01-10 08:01:00,
2013-01-10 03:07:00,40.1,26.1,-100.00,SE,141,0.4,2.9,57,-99.99,,,-99.99,WSDL version 423,2013-01-10 08:07:00,
2013-01-10 03:13:00,40.1,26.0,-100.00,ESE,120,0.6,2.5,57,-99.99,,,-99.99,WSDL version 423,2013-01-10 08:13:00,
2013-01-10 03:19:00,40.0,25.7,-100.00,ESE,121,0.4,4.7,56,-99.99,,,-99.99,WSDL version 423,2013-01-10 08:19:00,
2013-01-10 03:25:00,40.0,25.6,-100.00,SE,132,0.8,3.4,56,-99.99,,,-99.99,WSDL version 423,2013-01-10 08:25:00,
2013-01-10 03:31:00,40.0,25.6,-100.00,East,101,1.2,2.9,56,-99.99,,,-99.99,WSDL version 423,2013-01-10 08:31:00,
2013-01-10 03:37:00,39.9,25.5,-100.00,ESE,120,1.5,4.3,56,-99.99,,,-99.99,WSDL version 423,2013-01-10 08:37:00,
2013-01-10 03:43:00,39.9,25.5,-100.00,ESE,103,1.3,4.3,56,-99.99,,,-99.99,WSDL version 423,2013-01-10 08:43:00,
2013-01-10 03:49:00,39.7,25.2,-100.00,SE,135,1.1,3.4,55,-99.99,,,-99.99,WSDL version 423,2013-01-10 08:49:00,
2013-01-10 03:55:00,39.7,24.8,-100.00,ESE,113,0.0,3.4,55,-99.99,,,-99.99,WSDL version 423,2013-01-10 08:55:00,
2013-01-10 04:01:00,39.6,24.7,-100.00,SE,130,0.4,3.8,55,-99.99,,,-99.99,WSDL version 423,2013-01-10 09:01:00,
2013-01-10 04:07:00,39.4,24.6,-100.00,SE,129,0.7,3.8,55,-99.99,,,-99.99,WSDL version 423,2013-01-10 09:07:00,
2013-01-10 04:13:00,39.4,24.6,-100.00,SE,135,1.9,3.4,55,-99.99,,,-99.99,WSDL version 423,2013-01-10 09:13:00,
2013-01-10 04:19:00,39.4,24.6,-100.00,ESE,107,2.3,6.0,55,-99.99,,,-99.99,WSDL version 423,2013-01-10 09:19:00,
2013-01-10 04:25:00,39.4,24.4,-100.00,ESE,107,3.6,7.4,53,-99.99,,,-99.99,WSDL version 423,2013-01-10 09:25:00,
2013-01-10 04:31:00,40.1,24.5,-100.00,SE,132,2.1,7.4,53,-99.99,,,-99.99,WSDL version 423,2013-01-10 09:31:00,
2013-01-10 04:37:00,40.3,24.3,-100.00,SE,135,2.6,7.2,53,-99.99,,,-99.99,WSDL version 423,2013-01-10 09:37:00,
2013-01-10 04:43:00,40.2,24.4,-100.00,SE,133,0.6,5.6,53,-99.99,,,-99.99,WSDL version 423,2013-01-10 09:43:00,
2013-01-10 04:49:00,39.8,24.5,-100.00,ESE,103,0.0,2.5,54,-99.99,,,-99.99,WSDL version 423,2013-01-10 09:49:00,
2013-01-10 04:55:00,39.2,24.0,-100.00,North,360,0.0,1.6,54,0.00,,,0.00,WSDL version 423,2013-01-10 09:55:00,
2013-01-10 05:01:00,38.6,23.6,-100.00,North,360,0.0,0.0,55,0.00,,,0.00,WSDL version 423,2013-01-10 10:01:00,
2013-01-10 05:07:00,37.9,23.2,-100.00,South,174,0.0,0.0,55,-99.99,,,-99.99,WSDL version 423,2013-01-10 10:07:00,
2013-01-10 05:13:00,37.5,22.8,-100.00,SE,135,0.0,1.6,55,0.00,,,0.00,WSDL version 423,2013-01-10 10:13:00,
2013-01-10 05:19:00,37.1,22.9,-100.00,NW,326,0.4,2.7,56,0.00,,,0.00,WSDL version 423,2013-01-10 10:19:00,
2013-01-10 05:25:00,36.9,22.7,-100.00,NW,315,0.0,2.7,56,-99.99,,,-99.99,WSDL version 423,2013-01-10 10:25:00,
2013-01-10 05:31:00,36.5,22.3,-100.00,NNW,338,0.0,1.1,56,-99.99,,,-99.99,WSDL version 423,2013-01-10 10:31:00,
2013-01-10 05:37:00,36.1,22.0,-100.00,NNW,338,0.0,0.0,57,-99.99,,,-99.99,WSDL version 423,2013-01-10 10:37:00,
2013-01-10 05:43:00,36.0,22.2,-100.00,ENE,78,0.3,3.8,57,-99.99,,,-99.99,WSDL version 423,2013-01-10 10:43:00,
2013-01-10 05:49:00,36.3,22.5,-100.00,ESE,105,2.5,4.0,57,-99.99,,,-99.99,WSDL version 423,2013-01-10 10:49:00,
2013-01-10 05:55:00,37.0,23.2,-100.00,SE,129,1.0,4.0,57,0.00,,,0.00,WSDL version 423,2013-01-10 10:55:00,
2013-01-10 06:01:00,37.4,23.3,-100.00,ESE,118,2.5,4.7,56,-99.99,,,-99.99,WSDL version 423,2013-01-10 11:01:00,
2013-01-10 06:07:00,38.1,23.4,-100.00,ESE,123,2.9,6.9,55,-99.99,,,-99.99,WSDL version 423,2013-01-10 11:07:00,
2013-01-10 06:13:00,38.8,23.4,-100.00,ESE,118,2.9,7.4,53,0.00,,,0.00,WSDL version 423,2013-01-10 11:13:00,
2013-01-10 06:19:00,39.0,23.3,-100.00,ESE,110,1.8,7.4,53,-99.99,,,-99.99,WSDL version 423,2013-01-10 11:19:00,
2013-01-10 06:25:00,38.8,23.6,-100.00,SSE,148,1.4,4.5,54,0.00,,,0.00,WSDL version 423,2013-01-10 11:25:00,
2013-01-10 06:31:00,39.0,23.2,-100.00,SE,135,1.8,5.4,52,-99.99,,,-99.99,WSDL version 423,2013-01-10 11:31:00,
2013-01-10 06:37:00,39.0,23.2,-100.00,ESE,104,0.7,4.0,53,0.00,,,0.00,WSDL version 423,2013-01-10 11:37:00,
2013-01-10 06:43:00,38.8,23.2,-100.00,East,100,2.0,7.2,53,0.00,,,0.00,WSDL version 423,2013-01-10 11:43:00,
2013-01-10 06:49:00,38.9,23.1,-100.00,East,84,0.0,7.2,53,0.00,,,0.00,WSDL version 423,2013-01-10 11:49:00,
2013-01-10 06:55:00,38.7,23.0,-100.00,East,98,1.7,3.4,53,0.00,,,0.00,WSDL version 423,2013-01-10 11:55:00,
2013-01-10 07:01:00,38.8,23.1,-100.00,NNE,30,0.6,3.4,53,0.00,,,0.00,WSDL version 423,2013-01-10 12:01:00,
2013-01-10 07:07:00,38.5,22.9,-100.00,SSE,158,0.4,4.3,53,0.00,,,0.00,WSDL version 423,2013-01-10 12:07:00,
2013-01-10 07:13:00,38.0,22.4,-100.00,West,264,0.0,4.3,53,0.00,,,0.00,WSDL version 423,2013-01-10 12:13:00,
2013-01-10 07:19:00,37.4,22.3,-100.00,NW,315,0.0,1.3,54,0.00,,,0.00,WSDL version 423,2013-01-10 12:19:00,
2013-01-10 07:25:00,36.8,21.7,-100.00,South,180,0.0,1.1,54,0.00,,,0.00,WSDL version 423,2013-01-10 12:25:00,
2013-01-10 07:31:00,36.8,22.2,-100.00,SE,135,0.3,2.2,55,0.00,,,0.00,WSDL version 423,2013-01-10 12:31:00,
2013-01-10 07:37:00,36.9,22.3,-100.00,East,90,0.0,2.2,55,0.00,,,0.00,WSDL version 423,2013-01-10 12:37:00,
2013-01-10 07:43:00,37.2,22.5,-100.00,SE,128,0.0,2.0,55,0.00,,,0.00,WSDL version 423,2013-01-10 12:43:00,
2013-01-10 07:49:00,37.5,22.3,-100.00,ESE,115,1.0,2.5,54,0.00,,,0.00,WSDL version 423,2013-01-10 12:49:00,
2013-01-10 07:55:00,38.0,22.8,-100.00,ESE,107,1.1,3.4,54,0.00,,,0.00,WSDL version 423,2013-01-10 12:55:00,
2013-01-10 08:01:00,38.1,23.0,-100.00,East,93,0.6,3.4,54,0.00,,,0.00,WSDL version 423,2013-01-10 13:01:00,
2013-01-10 08:07:00,38.6,22.9,-100.00,ESE,115,0.4,2.9,53,0.00,,,0.00,WSDL version 423,2013-01-10 13:07:00,
2013-01-10 08:13:00,38.8,23.2,-100.00,East,90,0.0,2.0,53,0.00,,,0.00,WSDL version 423,2013-01-10 13:13:00,
2013-01-10 08:19:00,39.0,23.3,-100.00,SE,125,0.6,3.8,53,0.00,,,0.00,WSDL version 423,2013-01-10 13:19:00,
2013-01-10 08:25:00,39.4,23.2,-100.00,ESE,118,2.5,4.3,52,0.00,,,0.00,WSDL version 423,2013-01-10 13:25:00,
2013-01-10 08:31:00,39.9,23.2,-100.00,ESE,113,2.7,5.6,50,0.00,,,0.00,WSDL version 423,2013-01-10 13:31:00,
2013-01-10 08:37:00,40.4,23.4,-100.00,SE,135,3.8,6.5,50,0.00,,,0.00,WSDL version 423,2013-01-10 13:37:00,
2013-01-10 08:43:00,40.7,23.4,-100.00,SSE,158,2.3,6.5,50,0.00,,,0.00,WSDL version 423,2013-01-10 13:43:00,
2013-01-10 08:49:00,41.0,23.6,-100.00,SE,132,4.1,8.5,49,0.00,,,0.00,WSDL version 423,2013-01-10 13:49:00,
2013-01-10 08:55:00,41.2,23.5,-100.00,East,101,1.7,8.5,49,0.00,,,0.00,WSDL version 423,2013-01-10 13:55:00,
2013-01-10 09:01:00,41.6,23.0,-100.00,SE,127,4.1,5.8,47,0.00,,,0.00,WSDL version 423,2013-01-10 14:01:00,
2013-01-10 09:07:00,42.0,22.6,-100.00,ESE,110,6.0,8.5,45,0.00,,,0.00,WSDL version 423,2013-01-10 14:07:00,
2013-01-10 09:13:00,42.4,22.5,-100.00,SE,135,2.6,12.3,45,0.00,,,0.00,WSDL version 423,2013-01-10 14:13:00,
2013-01-10 09:19:00,42.7,22.0,-100.00,East,98,3.7,12.3,43,0.00,,,0.00,WSDL version 423,2013-01-10 14:19:00,
2013-01-10 09:25:00,43.1,22.8,-100.00,SE,138,1.8,8.7,45,0.00,,,0.00,WSDL version 423,2013-01-10 14:25:00,
2013-01-10 09:31:00,43.4,23.6,-100.00,SE,143,2.2,6.5,45,0.00,,,0.00,WSDL version 423,2013-01-10 14:31:00,
2013-01-10 09:37:00,43.7,22.4,-100.00,ESE,108,4.8,9.8,42,0.00,,,0.00,WSDL version 423,2013-01-10 14:37:00,
2013-01-10 09:43:00,44.0,22.5,-100.00,ESE,119,4.5,7.4,42,0.00,,,0.00,WSDL version 423,2013-01-10 14:43:00,
2013-01-10 09:49:00,44.2,22.3,-100.00,SE,128,4.1,8.7,42,0.00,,,0.00,WSDL version 423,2013-01-10 14:49:00,
2013-01-10 09:55:00,44.3,21.8,-100.00,SE,125,5.8,13.0,40,0.00,,,0.00,WSDL version 423,2013-01-10 14:55:00,
2013-01-10 10:01:00,44.4,21.8,-100.00,ESE,119,6.1,13.0,40,0.00,,,0.00,WSDL version 423,2013-01-10 15:01:00,
2013-01-10 10:07:00,44.7,22.2,-100.00,SE,141,2.3,8.5,41,0.00,,,0.00,WSDL version 423,2013-01-10 15:07:00,
2013-01-10 10:13:00,44.7,22.2,-100.00,SSE,168,2.8,5.6,41,0.00,,,0.00,WSDL version 423,2013-01-10 15:13:00,
2013-01-10 10:19:00,45.0,22.7,-100.00,South,170,2.8,5.6,41,0.00,,,0.00,WSDL version 423,2013-01-10 15:19:00,
2013-01-10 10:25:00,45.1,22.7,-100.00,SE,129,2.4,5.8,40,0.00,,,0.00,WSDL version 423,2013-01-10 15:25:00,
2013-01-10 10:31:00,44.8,22.0,-100.00,SE,125,3.0,6.5,40,0.00,,,0.00,WSDL version 423,2013-01-10 15:31:00,
2013-01-10 10:37:00,44.7,21.7,-100.00,ESE,107,4.8,10.1,39,0.00,,,0.00,WSDL version 423,2013-01-10 15:37:00,
2013-01-10 10:43:00,44.9,21.6,-100.00,ENE,76,3.4,8.1,39,0.00,,,0.00,WSDL version 423,2013-01-10 15:43:00,
2013-01-10 10:49:00,45.3,21.8,-100.00,SE,127,3.7,8.5,39,0.00,,,0.00,WSDL version 423,2013-01-10 15:49:00,
2013-01-10 10:55:00,45.4,21.8,-100.00,NW,315,3.0,8.5,39,0.00,,,0.00,WSDL version 423,2013-01-10 15:55:00,
2013-01-10 11:01:00,45.7,22.1,-100.00,SE,124,3.7,6.0,39,0.00,,,0.00,WSDL version 423,2013-01-10 16:01:00,
2013-01-10 11:07:00,46.1,22.3,-100.00,SSE,152,5.3,10.5,38,0.00,,,0.00,WSDL version 423,2013-01-10 16:07:00,
2013-01-10 11:13:00,46.2,22.1,-100.00,SE,143,3.3,10.5,38,0.00,,,0.00,WSDL version 423,2013-01-10 16:13:00,
2013-01-10 11:19:00,46.5,22.5,-100.00,SSE,148,4.3,10.5,38,0.00,,,0.00,WSDL version 423,2013-01-10 16:19:00,
2013-01-10 11:25:00,46.6,22.3,-100.00,South,188,3.6,10.5,37,0.00,,,0.00,WSDL version 423,2013-01-10 16:25:00,
2013-01-10 11:31:00,46.8,22.6,-100.00,ESE,113,2.5,8.1,38,0.00,,,0.00,WSDL version 423,2013-01-10 16:31:00,
2013-01-10 11:37:00,46.6,22.2,-100.00,South,173,2.7,10.5,38,0.00,,,0.00,WSDL version 423,2013-01-10 16:37:00,
2013-01-10 11:43:00,46.6,22.3,-100.00,SE,130,4.0,10.5,38,0.00,,,0.00,WSDL version 423,2013-01-10 16:43:00,
2013-01-10 11:49:00,46.3,21.7,-100.00,ESE,107,6.5,12.8,38,0.00,,,0.00,WSDL version 423,2013-01-10 16:49:00,
2013-01-10 11:55:00,46.2,21.8,-100.00,ESE,108,4.6,13.0,38,0.00,,,0.00,WSDL version 423,2013-01-10 16:55:00,
2013-01-10 12:01:00,46.5,22.1,-100.00,SE,135,3.6,9.4,37,-99.99,,,-99.99,WSDL version 423,2013-01-10 17:01:00,
2013-01-10 12:07:00,46.6,22.0,-100.00,ESE,115,2.2,5.4,38,0.00,,,0.00,WSDL version 423,2013-01-10 17:07:00,
2013-01-10 12:13:00,46.7,22.0,-100.00,SE,132,3.8,9.4,37,0.00,,,0.00,WSDL version 423,2013-01-10 17:13:00,
2013-01-10 12:19:00,46.6,21.9,-100.00,SE,145,3.5,7.6,38,0.00,,,0.00,WSDL version 423,2013-01-10 17:19:00,
2013-01-10 12:25:00,47.0,22.7,-100.00,SE,133,3.2,5.8,38,0.00,,,0.00,WSDL version 423,2013-01-10 17:25:00,
2013-01-10 12:31:00,47.3,23.0,-100.00,SE,129,4.3,6.0,38,0.00,,,0.00,WSDL version 423,2013-01-10 17:31:00,
2013-01-10 12:37:00,47.6,23.2,-100.00,ESE,103,2.1,6.0,38,0.00,,,0.00,WSDL version 423,2013-01-10 17:37:00,
2013-01-10 12:43:00,47.5,22.5,-100.00,SE,125,6.4,12.3,37,0.00,,,0.00,WSDL version 423,2013-01-10 17:43:00,
2013-01-10 12:49:00,47.5,22.6,-100.00,SE,124,3.7,12.3,38,0.00,,,0.00,WSDL version 423,2013-01-10 17:49:00,
2013-01-10 12:55:00,47.7,22.7,-100.00,SE,135,2.8,9.8,37,0.00,,,0.00,WSDL version 423,2013-01-10 17:55:00,
2013-01-10 13:01:00,47.7,22.7,-100.00,South,175,3.5,10.1,37,0.00,,,0.00,WSDL version 423,2013-01-10 18:01:00,
2013-01-10 13:07:00,47.7,22.7,-100.00,SE,138,3.6,8.7,37,0.00,,,0.00,WSDL version 423,2013-01-10 18:07:00,
2013-01-10 13:13:00,47.7,22.7,-100.00,ESE,121,3.4,8.7,37,0.00,,,0.00,WSDL version 423,2013-01-10 18:13:00,
2013-01-10 13:19:00,47.7,22.7,-100.00,SE,135,5.0,9.6,37,0.00,,,0.00,WSDL version 423,2013-01-10 18:19:00,
2013-01-10 13:25:00,47.4,22.5,-100.00,ESE,118,4.2,9.6,37,0.00,,,0.00,WSDL version 423,2013-01-10 18:25:00,
2013-01-10 13:31:00,47.4,22.1,-100.00,SE,129,4.3,8.9,36,0.00,,,0.00,WSDL version 423,2013-01-10 18:31:00,
2013-01-10 13:37:00,47.8,22.6,-100.00,East,87,2.9,8.9,37,0.00,,,0.00,WSDL version 423,2013-01-10 18:37:00,
2013-01-10 13:43:00,47.9,22.3,-100.00,SE,125,6.2,10.5,37,0.00,,,0.00,WSDL version 423,2013-01-10 18:43:00,
2013-01-10 13:49:00,48.2,23.1,-100.00,SE,130,3.0,10.5,37,0.00,,,0.00,WSDL version 423,2013-01-10 18:49:00,
2013-01-10 13:55:00,48.3,22.6,-100.00,NNE,14,3.4,7.6,36,0.00,,,0.00,WSDL version 423,2013-01-10 18:55:00,
2013-01-10 14:01:00,48.3,23.1,-100.00,SE,138,2.7,7.6,37,0.00,,,0.00,WSDL version 423,2013-01-10 19:01:00,
2013-01-10 14:07:00,48.3,22.7,-100.00,ESE,120,4.6,8.7,36,0.00,,,0.00,WSDL version 423,2013-01-10 19:07:00,
2013-01-10 14:13:00,48.2,22.6,-100.00,East,87,5.0,8.7,36,0.00,,,0.00,WSDL version 423,2013-01-10 19:13:00,
2013-01-10 14:19:00,48.1,22.5,-100.00,ESE,120,5.5,10.7,36,0.00,,,0.00,WSDL version 423,2013-01-10 19:19:00,
2013-01-10 14:25:00,48.2,22.4,-100.00,ESE,113,4.4,9.8,37,0.00,,,0.00,WSDL version 423,2013-01-10 19:25:00,
2013-01-10 14:31:00,48.4,22.8,-100.00,East,98,4.4,7.6,36,0.00,,,0.00,WSDL version 423,2013-01-10 19:31:00,
2013-01-10 14:37:00,48.5,23.1,-100.00,ESE,121,3.2,6.7,37,0.00,,,0.00,WSDL version 423,2013-01-10 19:37:00,
2013-01-10 14:43:00,48.7,23.1,-100.00,ESE,105,4.6,9.8,35,0.00,,,0.00,WSDL version 423,2013-01-10 19:43:00,
2013-01-10 14:49:00,48.7,23.1,-100.00,SE,127,3.2,9.8,37,0.00,,,0.00,WSDL version 423,2013-01-10 19:49:00,
2013-01-10 14:55:00,48.8,22.4,-100.00,SE,125,4.6,8.5,35,0.00,,,0.00,WSDL version 423,2013-01-10 19:55:00,
2013-01-10 15:01:00,48.7,23.0,-100.00,SSE,158,2.8,8.5,37,0.00,,,0.00,WSDL version 423,2013-01-10 20:01:00,
2013-01-10 15:07:00,48.7,23.0,-100.00,ESE,113,2.6,6.3,36,0.00,,,0.00,WSDL version 423,2013-01-10 20:07:00,
2013-01-10 15:13:00,48.5,22.4,-100.00,ESE,115,4.3,7.8,36,0.00,,,0.00,WSDL version 423,2013-01-10 20:13:00,
2013-01-10 15:19:00,48.3,22.1,-100.00,East,101,4.8,10.1,35,0.00,,,0.00,WSDL version 423,2013-01-10 20:19:00,
2013-01-10 15:25:00,48.2,22.1,-100.00,ESE,123,4.2,10.1,35,0.00,,,0.00,WSDL version 423,2013-01-10 20:25:00,
2013-01-10 15:31:00,48.1,22.1,-100.00,SSE,150,3.2,10.1,36,0.00,,,0.00,WSDL version 423,2013-01-10 20:31:00,
2013-01-10 15:37:00,48.0,22.7,-100.00,ESE,115,3.3,7.4,36,0.00,,,0.00,WSDL version 423,2013-01-10 20:37:00,
2013-01-10 15:43:00,48.0,22.7,-100.00,ESE,113,3.9,8.1,36,0.00,,,0.00,WSDL version 423,2013-01-10 20:43:00,
2013-01-10 15:49:00,47.9,22.6,-100.00,SE,135,1.9,8.1,37,0.00,,,0.00,WSDL version 423,2013-01-10 20:49:00,
2013-01-10 15:55:00,47.7,22.3,-100.00,ESE,118,4.3,7.8,37,0.00,,,0.00,WSDL version 423,2013-01-10 20:55:00,
2013-01-10 16:01:00,47.6,22.7,-100.00,ESE,115,3.0,7.8,37,0.00,,,0.00,WSDL version 423,2013-01-10 21:01:00,
2013-01-10 16:07:00,47.5,22.5,-100.00,SE,130,2.4,6.0,37,0.00,,,0.00,WSDL version 423,2013-01-10 21:07:00,
2013-01-10 16:13:00,47.3,22.4,-100.00,SE,138,1.6,3.6,37,0.00,,,0.00,WSDL version 423,2013-01-10 21:13:00,
2013-01-10 16:19:00,47.1,22.2,-100.00,ESE,118,3.4,6.5,37,0.00,,,0.00,WSDL version 423,2013-01-10 21:19:00,
2013-01-10 16:25:00,47.0,22.1,-100.00,East,98,1.8,6.5,38,0.00,,,0.00,WSDL version 423,2013-01-10 21:25:00,
2013-01-10 16:31:00,46.6,22.2,-100.00,ESE,108,2.7,5.8,37,0.00,,,0.00,WSDL version 423,2013-01-10 21:31:00,
2013-01-10 16:37:00,46.4,22.2,-100.00,ESE,118,1.8,5.8,38,0.00,,,0.00,WSDL version 423,2013-01-10 21:37:00,
2013-01-10 16:43:00,46.2,22.0,-100.00,SSE,160,0.8,3.1,38,0.00,,,0.00,WSDL version 423,2013-01-10 21:43:00,
2013-01-10 16:49:00,45.9,21.7,-100.00,SE,130,0.5,2.7,38,0.00,,,0.00,WSDL version 423,2013-01-10 21:49:00,
2013-01-10 16:55:00,45.6,21.5,-100.00,ESE,113,0.7,3.4,38,0.00,,,0.00,WSDL version 423,2013-01-10 21:55:00,
2013-01-10 17:01:00,45.3,21.8,-100.00,ESE,113,0.5,2.5,39,0.00,,,0.00,WSDL version 423,2013-01-10 22:01:00,
2013-01-10 17:07:00,44.9,21.4,-100.00,ESE,113,0.1,2.0,39,0.00,,,0.00,WSDL version 423,2013-01-10 22:07:00,
2013-01-10 17:17:00,44.6,21.2,-100.00,ESE,108,0.5,4.0,39,0.00,,,0.00,WSDL version 423,2013-01-10 22:17:00,
2013-01-10 17:23:00,44.4,21.4,-100.00,ESE,118,0.0,3.1,40,0.00,,,0.00,WSDL version 423,2013-01-10 22:23:00,
2013-01-10 17:29:00,44.1,21.3,-100.00,SE,124,0.4,2.2,40,0.00,,,0.00,WSDL version 423,2013-01-10 22:29:00,
2013-01-10 17:35:00,43.7,21.0,-100.00,East,90,0.0,1.3,40,0.00,,,0.00,WSDL version 423,2013-01-10 22:35:00,
2013-01-10 17:41:00,43.2,20.5,-100.00,North,8,0.0,0.9,40,0.00,,,0.00,WSDL version 423,2013-01-10 22:41:00,
2013-01-10 17:47:00,42.8,20.2,-100.00,SE,135,0.0,0.0,40,0.00,,,0.00,WSDL version 423,2013-01-10 22:47:00,
2013-01-10 17:53:00,42.4,20.4,-100.00,SE,135,0.0,0.0,41,0.00,,,0.00,WSDL version 423,2013-01-10 22:53:00,
2013-01-10 17:59:00,41.9,19.9,-100.00,SE,135,0.0,0.0,41,0.00,,,0.00,WSDL version 423,2013-01-10 22:59:00,
2013-01-10 18:07:00,41.5,19.5,-100.00,SE,135,0.0,0.0,41,0.00,,,0.00,WSDL version 423,2013-01-10 23:07:00,
2013-01-10 18:13:00,41.0,19.6,-100.00,ESE,113,1.2,2.5,42,0.00,,,0.00,WSDL version 423,2013-01-10 23:13:00,
2013-01-10 18:19:00,41.4,20.0,-100.00,NE,45,0.0,2.5,42,0.00,,,0.00,WSDL version 423,2013-01-10 23:19:00,
2013-01-10 18:25:00,41.0,19.7,-100.00,NNW,341,0.0,2.0,43,0.00,,,0.00,WSDL version 423,2013-01-10 23:25:00,
2013-01-10 18:31:00,41.1,19.8,-100.00,SE,127,1.3,2.5,42,0.00,,,0.00,WSDL version 423,2013-01-10 23:31:00,
2013-01-10 18:37:00,41.3,19.9,-100.00,ENE,68,0.6,2.5,42,0.00,,,0.00,WSDL version 423,2013-01-10 23:37:00,
2013-01-10 18:43:00,41.0,19.7,-100.00,ESE,123,1.8,2.9,42,0.00,,,0.00,WSDL version 423,2013-01-10 23:43:00,
2013-01-10 18:49:00,41.2,20.4,-100.00,ESE,110,1.0,2.9,43,0.00,,,0.00,WSDL version 423,2013-01-10 23:49:00,
2013-01-10 18:55:00,41.1,20.2,-100.00,North,11,0.0,2.0,43,0.00,,,0.00,WSDL version 423,2013-01-10 23:55:00,
2013-01-10 19:01:00,40.6,19.9,-100.00,North,360,0.0,0.0,43,0.00,,,0.00,WSDL version 423,2013-01-11 00:01:00,
2013-01-10 19:07:00,40.4,19.7,-100.00,West,270,1.0,1.6,43,0.00,,,0.00,WSDL version 423,2013-01-11 00:07:00,
2013-01-10 19:13:00,40.0,19.5,-100.00,ESE,110,0.3,2.0,44,0.00,,,0.00,WSDL version 423,2013-01-11 00:13:00,
2013-01-10 19:19:00,39.7,19.6,-100.00,ENE,70,0.0,1.6,44,0.00,,,0.00,WSDL version 423,2013-01-11 00:19:00,
2013-01-10 19:25:00,39.5,19.4,-100.00,ESE,113,0.0,1.3,44,0.00,,,0.00,WSDL version 423,2013-01-11 00:25:00,
2013-01-10 19:31:00,39.4,19.3,-100.00,West,270,0.3,2.5,44,0.00,,,0.00,WSDL version 423,2013-01-11 00:31:00,
2013-01-10 19:37:00,39.2,19.1,-100.00,WNW,288,0.0,2.5,44,0.00,,,0.00,WSDL version 423,2013-01-11 00:37:00,
2013-01-10 19:43:00,38.9,19.4,-100.00,NW,315,0.1,2.2,45,0.00,,,0.00,WSDL version 423,2013-01-11 00:43:00,
2013-01-10 19:49:00,38.7,19.2,-100.00,NW,315,0.0,1.6,45,0.00,,,0.00,WSDL version 423,2013-01-11 00:49:00,
2013-01-10 19:57:00,38.4,19.1,-100.00,NW,315,0.0,0.0,46,0.00,,,0.00,WSDL version 423,2013-01-11 00:57:00,
2013-01-10 20:03:00,38.3,19.3,-100.00,NW,315,0.0,0.0,46,0.00,,,0.00,WSDL version 423,2013-01-11 01:03:00,
2013-01-10 20:09:00,38.2,19.2,-100.00,NNW,338,0.0,0.0,46,0.00,,,0.00,WSDL version 423,2013-01-11 01:09:00,
2013-01-10 20:15:00,38.1,19.4,-100.00,East,96,0.4,1.6,47,0.00,,,0.00,WSDL version 423,2013-01-11 01:15:00,
2013-01-10 20:21:00,38.1,19.3,-100.00,SE,135,0.0,1.6,46,0.00,,,0.00,WSDL version 423,2013-01-11 01:21:00,
2013-01-10 20:27:00,37.9,19.1,-100.00,SE,133,0.6,1.6,47,0.00,,,0.00,WSDL version 423,2013-01-11 01:27:00,
2013-01-10 20:33:00,37.9,19.5,-100.00,SSW,211,0.0,1.6,47,0.00,,,0.00,WSDL version 423,2013-01-11 01:33:00,
2013-01-10 20:39:00,37.8,19.3,-100.00,ESE,113,0.9,1.6,47,0.00,,,0.00,WSDL version 423,2013-01-11 01:39:00,
2013-01-10 20:45:00,37.8,19.4,-100.00,NNE,20,0.0,1.6,47,0.00,,,0.00,WSDL version 423,2013-01-11 01:45:00,
2013-01-10 20:51:00,37.6,19.2,-100.00,ESE,113,0.0,1.1,47,0.00,,,0.00,WSDL version 423,2013-01-11 01:51:00,
2013-01-10 20:57:00,37.6,19.3,-100.00,ESE,113,0.0,0.0,48,0.00,,,0.00,WSDL version 423,2013-01-11 01:57:00,
2013-01-10 21:03:00,37.5,19.6,-100.00,ESE,113,0.0,0.9,48,0.00,,,0.00,WSDL version 423,2013-01-11 02:03:00,
2013-01-10 21:09:00,37.6,19.7,-100.00,ESE,113,0.0,0.9,48,0.00,,,0.00,WSDL version 423,2013-01-11 02:09:00,
2013-01-10 21:15:00,37.5,19.6,-100.00,ESE,113,0.0,0.0,48,0.00,,,0.00,WSDL version 423,2013-01-11 02:15:00,
2013-01-10 21:21:00,37.9,20.1,-100.00,ESE,113,0.0,1.3,48,0.00,,,0.00,WSDL version 423,2013-01-11 02:21:00,
2013-01-10 21:27:00,37.9,20.0,-100.00,NE,43,0.0,1.3,48,0.00,,,0.00,WSDL version 423,2013-01-11 02:27:00,
2013-01-10 21:33:00,37.9,20.0,-100.00,NW,315,0.0,1.6,48,0.00,,,0.00,WSDL version 423,2013-01-11 02:33:00,
2013-01-10 21:39:00,37.9,20.2,-100.00,NW,315,0.0,1.6,49,0.00,,,0.00,WSDL version 423,2013-01-11 02:39:00,
2013-01-10 21:46:00,38.0,20.6,-100.00,NW,320,0.0,0.0,49,0.00,,,0.00,WSDL version 423,2013-01-11 02:46:00,
2013-01-10 21:54:00,38.0,20.6,-100.00,SE,135,0.0,0.0,49,0.00,,,0.00,WSDL version 423,2013-01-11 02:54:00,
2013-01-10 22:02:00,38.1,20.7,-100.00,SE,135,0.0,0.0,49,0.00,,,0.00,WSDL version 423,2013-01-11 03:02:00,
2013-01-10 22:08:00,38.4,20.9,-100.00,East,90,0.0,1.3,49,0.00,,,0.00,WSDL version 423,2013-01-11 03:08:00,
2013-01-10 22:14:00,38.5,21.0,-100.00,SSW,208,0.0,1.3,49,0.00,,,0.00,WSDL version 423,2013-01-11 03:14:00,
2013-01-10 22:20:00,38.6,21.1,-100.00,ESE,113,0.4,1.6,49,0.00,,,0.00,WSDL version 423,2013-01-11 03:20:00,
2013-01-10 22:26:00,38.5,21.0,-100.00,ESE,113,0.0,1.6,49,-99.99,,,-99.99,WSDL version 423,2013-01-11 03:26:00,
2013-01-10 22:32:00,38.5,21.0,-100.00,ESE,113,0.0,1.1,49,-99.99,,,-99.99,WSDL version 423,2013-01-11 03:32:00,
2013-01-10 22:38:00,38.7,21.2,-100.00,WNW,298,2.0,3.1,49,-99.99,,,-99.99,WSDL version 423,2013-01-11 03:38:00,
2013-01-10 22:44:00,39.1,21.4,-100.00,WSW,257,0.4,3.1,48,0.00,,,0.00,WSDL version 423,2013-01-11 03:44:00,
2013-01-10 22:50:00,39.2,21.2,-100.00,West,267,0.0,2.0,48,0.00,,,0.00,WSDL version 423,2013-01-11 03:50:00,
2013-01-10 22:56:00,39.3,21.3,-100.00,WSW,240,0.0,1.6,48,0.00,,,0.00,WSDL version 423,2013-01-11 03:56:00,
2013-01-10 23:02:00,39.4,21.3,-100.00,West,270,0.0,4.0,48,0.00,,,0.00,WSDL version 423,2013-01-11 04:02:00,
2013-01-10 23:08:00,39.4,21.3,-100.00,SW,225,0.0,2.9,48,0.00,,,0.00,WSDL version 423,2013-01-11 04:08:00,
2013-01-10 23:14:00,39.2,21.1,-100.00,East,90,0.0,1.1,47,0.00,,,0.00,WSDL version 423,2013-01-11 04:14:00,
2013-01-10 23:20:00,39.1,20.9,-100.00,East,90,0.0,0.0,48,0.00,,,0.00,WSDL version 423,2013-01-11 04:20:00,
2013-01-10 23:26:00,38.8,20.8,-100.00,East,90,0.0,0.0,48,0.00,,,0.00,WSDL version 423,2013-01-11 04:26:00,
2013-01-10 23:32:00,38.8,20.8,-100.00,SE,129,0.4,1.3,48,-99.99,,,-99.99,WSDL version 423,2013-01-11 04:32:00,
2013-01-10 23:38:00,38.8,20.8,-100.00,SE,135,0.0,1.3,48,0.00,,,0.00,WSDL version 423,2013-01-11 04:38:00,
2013-01-10 23:44:00,38.7,20.7,-100.00,WSW,242,0.0,0.9,48,0.00,,,0.00,WSDL version 423,2013-01-11 04:44:00,
2013-01-10 23:50:00,38.5,20.5,-100.00,WNW,293,0.0,1.3,48,0.00,,,0.00,WSDL version 423,2013-01-11 04:50:00,
2013-01-10 23:56:00,38.4,20.7,-100.00,WNW,293,0.0,0.9,49,0.00,,,0.00,WSDL version 423,2013-01-11 04:56:00,